User: anonymous   Login
Location: Prairie State College
(41.5244°N, 87.6382°W)
Time: 06:00:12
(UTC-05:00)
Language:

ARGOS Delta rocket - Orbit

View from above orbital plane
View from above orbital plane
View from above satellite
View from above satellite

Ground track
Ground track

The orbit data is extracted from the following two-line orbital elements,

1 25637U 99008D   17292.23455987  .00000065  00000-0  24067-4 0  9997
2 25637  96.4643 163.2455 0141072 246.2982 222.3005 14.46540439983544
Epoch (UTC): 19 October 2017 05:37:45
Eccentricity: 0.0141072
inclination: 96.4643°
perigee height: 636 km
apogee height: 837 km
right ascension of ascending node: 163.2455°
argument of perigee: 246.2982°
revolutions per day: 14.46540439
mean anomaly at epoch: 222.3005°
orbit number at epoch: 98354

The dashed part of the orbit path shows where the satellite is in the earth's shadow,  

DLR